Location: Moscow
(38.8570°N, 84.2291°W)
Time: 23:11:16
(UTC+00:00)

RS-44 - Visible Passes

Search period start: 12 March 2026 00:00
Search period end: 22 March 2026 00:00
Orbit: 1174 x 1511 km, 82.5° (Epoch: 12 March)

Date Brightness Start Highest point End Pass type
(mag) Time Alt. Az. Time Alt. Az. Time Alt. Az.
12 Mar ? 07:41:26 10° N 07:49:10 40° ENE 07:49:42 40° E visible
12 Mar ? 09:34:52 10° NNW 09:42:13 43° W 09:42:13 43° W visible
13 Mar ? 06:16:20 10° NE 06:18:00 11° ENE 06:19:41 10° ENE visible
13 Mar ? 08:04:51 10° N 08:12:35 61° ENE 08:12:35 61° ENE visible
13 Mar ? 09:59:18 10° NNW 10:05:07 27° WNW 10:05:07 27° WNW visible
14 Mar ? 06:37:00 10° NNE 06:42:32 19° ENE 06:43:04 18° ENE visible
14 Mar ? 08:28:30 10° N 08:35:37 69° N 08:35:37 69° N visible
14 Mar ? 10:24:27 10° NW 10:28:09 16° WNW 10:28:09 16° WNW visible
15 Mar ? 06:59:41 10° NNE 07:06:12 29° ENE 07:06:12 29° ENE visible
15 Mar ? 08:52:24 10° NNW 08:58:45 50° NW 08:58:45 50° NW visible
16 Mar ? 07:22:52 10° N 07:29:25 42° NE 07:29:25 42° NE visible
16 Mar ? 09:16:34 10° NNW 09:21:58 34° WNW 09:21:58 34° WNW visible
17 Mar ? 05:56:24 10° NE 05:59:53 13° ENE 06:00:08 13° ENE visible
17 Mar ? 07:46:22 10° N 07:52:42 53° NNE 07:52:42 53° NNE visible
17 Mar ? 09:41:08 10° NNW 09:45:15 22° WNW 09:45:15 22° WNW visible
18 Mar ? 06:18:11 10° NNE 06:23:27 21° ENE 06:23:27 21° ENE visible
18 Mar ? 08:10:05 10° N 08:16:01 51° NNW 08:16:01 51° NNW visible
18 Mar ? 10:06:36 10° NW 10:08:35 13° WNW 10:08:35 13° WNW visible
19 Mar ? 06:41:04 10° N 06:46:49 31° NE 06:46:49 31° NE visible
19 Mar ? 08:34:03 10° NNW 08:39:23 39° NW 08:39:23 39° NW visible
20 Mar ? 07:04:21 10° N 07:10:13 41° NE 07:10:13 41° NE visible
20 Mar ? 08:58:18 10° NNW 09:02:47 28° NW 09:02:47 28° NW visible
21 Mar ? 05:37:12 10° NNE 05:41:04 15° ENE 05:41:04 15° ENE visible
21 Mar ? 07:27:55 10° N 07:33:39 47° N 07:33:39 47° N visible
21 Mar ? 09:23:02 10° NW 09:26:13 18° NW 09:26:13 18° NW visible
